Location: Marshall
(39.8477°N, 87.1868°W)
Time: 11:16:53
(UTC+00:00)

Envisat - Visible Passes

Search period start: 08 May 2026 00:00
Search period end: 18 May 2026 00:00
Orbit: 761 x 762 km, 98.4° (Epoch: 7 May)

Date Brightness Start Highest point End Pass type
(mag) Time Alt. Az. Time Alt. Az. Time Alt. Az.
8 May 2.9 08:24:49 10° NNE 08:29:54 82° ESE 08:31:47 40° S visible
8 May 5.0 10:06:07 10° NW 10:08:06 12° WNW 10:10:05 10° W visible
9 May 4.2 07:47:22 10° NNE 07:52:00 35° E 07:53:35 28° SE visible
9 May 4.2 09:26:34 10° N 09:30:45 27° WNW 09:33:42 16° WSW visible
10 May 5.2 07:10:59 10° NE 07:13:52 15° E 07:15:23 13° ESE visible
10 May 3.1 08:48:10 10° N 08:53:10 60° WNW 08:55:30 30° SW visible
11 May 3.3 08:10:22 10° NNE 08:15:23 59° E 08:17:18 36° SSE visible
11 May 4.7 09:50:40 10° NNW 09:53:47 17° WNW 09:56:55 10° W visible
12 May 4.6 07:33:13 10° NE 07:37:23 25° E 07:39:05 21° SE visible
12 May 3.8 09:11:45 10° N 09:16:21 36° WNW 09:19:14 20° WSW visible
13 May 5.6 06:58:18 10° ENE 06:59:11 10° E 07:00:05 10° E visible
13 May 2.9 08:33:36 10° N 08:38:41 82° WNW 08:41:01 33° SSW visible
14 May 3.9 07:56:01 10° NNE 08:00:49 42° E 08:02:49 29° SSE visible
14 May 4.4 09:35:36 10° NNW 09:39:27 22° WNW 09:42:56 11° WSW visible
15 May 5.0 07:19:15 10° NE 07:22:45 19° E 07:24:36 16° ESE visible
15 May 3.3 08:57:02 10° N 09:01:55 49° WNW 09:04:44 24° SW visible
16 May 3.1 08:19:06 10° NNE 08:24:11 73° ESE 08:26:31 32° S visible
16 May 4.9 09:59:58 10° NNW 10:02:27 14° WNW 10:04:57 10° W visible
17 May 4.4 07:41:46 10° NE 07:46:14 31° E 07:48:18 23° SE visible
17 May 4.0 09:20:42 10° N 09:25:04 30° WNW 09:28:25 15° WSW visible
